Blackpool, United Kingdom

6:58 AM BST on August 21, 2017 (GMT +0100)
Blackpool

Weather History for EGNH - November, 2012

Change the Weather History Date:

Friday, November 2, 2012

  Actual Average Record
Temperature  
Mean Temperature 46 °F -  
Max Temperature 49 °F 48 °F 62 °F (2005)
Min Temperature 41 °F 41 °F 32 °F (2006)
Degree Days  
Heating Degree Days 20    
Moisture  
Dew Point 41 °F    
Average Humidity 79    
Maximum Humidity 93    
Minimum Humidity 63    
Precipitation  
Precipitation 0.20 in - - ()
Sea Level Pressure  
Sea Level Pressure 29.08 in    
Wind  
Wind Speed 21 mph ()    
Max Wind Speed 32 mph    
Max Gust Speed 40 mph    
Visibility 6.1 miles    
Events Rain    
Averages and records for this station are not official NWS values.
T = Trace of Precipitation, MM = Missing Value Source: Averaged Metar Reports

Daily Weather History Graph

Daily Weather History Graph

Search for Another Location

Airport or City:

Trip Planner

Search our weather history database for the weather conditions in past years. The results will help you decide how hot, cold, wet, or windy it might be!

Date:

Astronomy

Nov. 02, 2012 Rise Set
Actual Time 7:14 AM GMT 4:35 PM GMT
Civil Twilight 6:37 AM GMT 5:13 PM GMT
Nautical Twilight 5:55 AM GMT 5:55 PM GMT
Astronomical Twilight 5:14 AM GMT 6:35 PM GMT
Moon 6:51 PM GMT (11/2) 10:44 AM GMT (11/2)
Length of Visible Light 10h 36m
Length of Day
9h 21m
Waning Gibbous, 88% of the Moon is Illuminated
Nov 2
Waning Gibbous
Nov 7
Last Quarter
Nov 13
New
Nov 20
First Quarter
Nov 28
Full

Hourly Weather History & Observations

Time (GMT) Temp. Windchill Dew Point Humidity Pressure Visibility Wind Dir Wind Speed Gust Speed Precip Events Conditions
2:50 AM 48 °F - 39 °F 63%  in - West 25.3 mph - -  
5:50 AM 47 °F - 41 °F 73%  in - SW 25.3 mph - -  
6:20 AM 46.4 °F 38.1 °F 41.0 °F 81% 29.00 in 6.2 mi WSW 24.2 mph - N/A   Partly Cloudy
6:50 AM 46.4 °F 38.3 °F 41.0 °F 81% 29.00 in 6.2 mi SW 23.0 mph - N/A   Partly Cloudy
7:20 AM 46.4 °F 38.3 °F 41.0 °F 81% 29.03 in 6.2 mi SW 23.0 mph - N/A   Partly Cloudy
7:50 AM 46.4 °F 38.1 °F 41.0 °F 81% 29.03 in 6.2 mi SW 24.2 mph - N/A   Scattered Clouds
8:20 AM 46.4 °F 37.9 °F 41.0 °F 81% 29.03 in 6.2 mi SW 25.3 mph - N/A Rain Light Rain Showers
8:50 AM 47 °F - 40 °F 69%  in - SW 26.5 mph - -  
8:50 AM 48.2 °F - 41.0 °F 76% 29.03 in 6.2 mi SW 25.3 mph - N/A   Scattered Clouds
9:20 AM 46.4 °F 38.1 °F 41.0 °F 81% 29.03 in 6.2 mi SW 24.2 mph - N/A Rain Light Rain Showers
9:50 AM 48.2 °F - 42.8 °F 82% 29.06 in 6.2 mi SW 24.2 mph - N/A   Partly Cloudy
10:50 AM 48.2 °F - 41.0 °F 76% 29.06 in 6.2 mi SW 24.2 mph - N/A Rain Light Rain Showers
11:20 AM 48.2 °F - 41.0 °F 76% 29.03 in 6.2 mi SW 27.6 mph - N/A   Scattered Clouds
11:50 AM 47 °F - 40 °F 69%  in - WSW 26.5 mph - -  
11:50 AM 48.2 °F - 41.0 °F 76% 29.03 in 6.2 mi WSW 26.5 mph - N/A Rain Rain Showers
12:20 PM 48.2 °F - 41.0 °F 76% 29.03 in 6.2 mi WSW 26.5 mph - N/A   Scattered Clouds
12:50 PM 48.2 °F - 41.0 °F 76% 29.03 in 6.2 mi WSW 28.8 mph 40.3 mph N/A   Scattered Clouds
1:20 PM 50.0 °F - 39.2 °F 66% 29.06 in 6.2 mi WSW 31.1 mph - N/A   Scattered Clouds
1:50 PM 48.2 °F - 41.0 °F 76% 29.03 in 6.2 mi West 32.2 mph - N/A Rain Light Rain Showers
2:20 PM 46.4 °F 37.2 °F 41.0 °F 81% 29.06 in 6.2 mi West 29.9 mph - N/A Rain Rain Showers
2:50 PM 43 °F - 40 °F 85%  in - West 29.9 mph - -  
2:50 PM 44.6 °F 35.1 °F 41.0 °F 87% 29.09 in 5.0 mi West 27.6 mph 40.3 mph N/A Rain Rain
3:20 PM 44.6 °F 34.7 °F 41.0 °F 87% 29.09 in 6.2 mi West 29.9 mph - N/A Rain Rain
3:50 PM 46.4 °F 37.4 °F 42.8 °F 87% 29.09 in 6.2 mi West 28.8 mph - N/A   Mostly Cloudy
4:20 PM 46.4 °F 38.5 °F 41.0 °F 81% 29.12 in 6.2 mi West 21.9 mph - N/A   Mostly Cloudy
4:50 PM 44.6 °F 37.4 °F 42.8 °F 93% 29.12 in 6.2 mi WSW 16.1 mph - N/A Rain Light Rain Showers
5:20 PM 46.4 °F 39.2 °F 41.0 °F 81% 29.15 in 6.2 mi WNW 18.4 mph 29.9 mph N/A Rain Rain Showers
5:50 PM 47 °F - 41 °F 72%  in - WNW 17.3 mph - -  
6:20 PM 46.4 °F 41.5 °F 41.0 °F 81% 29.18 in 6.2 mi NNW 10.4 mph - N/A   Mostly Cloudy
6:50 PM 46.4 °F 42.4 °F 41.0 °F 81% 29.18 in 6.2 mi NW 8.1 mph - N/A Rain Light Rain
7:50 PM 46.4 °F 42.9 °F 41.0 °F 81% 29.21 in 6.2 mi WNW 6.9 mph - N/A   Scattered Clouds
8:20 PM 46.4 °F 44.3 °F 41.0 °F 81% 29.21 in 6.2 mi West 4.6 mph - N/A   Scattered Clouds
8:50 PM 42 °F - 40 °F 88%  in - WSW 11.5 mph - -  
8:50 PM 42.8 °F 37.0 °F 39.2 °F 87% 29.24 in 5.0 mi WSW 10.4 mph - N/A Rain Rain
11:50 PM 41 °F - 38 °F 87%  in - SSW 2.3 mph - -